TimeCST,TemperatureF,Dew PointF,Humidity,Sea Level PressureIn,VisibilityMPH,Wind Direction,Wind SpeedMPH,Gust SpeedMPH,PrecipitationIn,Events,Conditions,WindDirDegrees,DateUTC
12:08 AM,24.1,21.0,88,30.26,2.5,NNW,11.5,-,0.01,Snow,Light Snow,340,2013-12-06 06:08:00
12:23 AM,24.1,19.9,84,30.26,1.2,NNW,12.7,-,0.03,Snow,Light Snow,340,2013-12-06 06:23:00
12:33 AM,24.1,19.9,84,30.27,0.8,North,10.4,-,0.04,Snow,Light Snow,360,2013-12-06 06:33:00
12:52 AM,23.0,19.9,88,30.26,0.8,North,10.4,-,0.06,Snow,Light Snow,360,2013-12-06 06:52:00
1:11 AM,23.0,19.9,88,30.26,1.0,North,9.2,-,0.03,Snow,Light Snow,360,2013-12-06 07:11:00
1:18 AM,23.0,19.9,88,30.26,2.0,North,9.2,-,0.03,Snow,Light Snow,360,2013-12-06 07:18:00
1:31 AM,23.0,19.9,88,30.27,1.2,North,9.2,-,0.04,Snow,Light Snow,350,2013-12-06 07:31:00
1:52 AM,23.0,19.9,88,30.28,1.0,North,11.5,-,0.06,Snow,Light Snow,360,2013-12-06 07:52:00
2:00 AM,23.0,19.9,88,30.26,0.8,North,10.4,-,0.00,Snow,Light Snow,360,2013-12-06 08:00:00
2:06 AM,23.0,19.9,88,30.26,1.0,North,11.5,-,0.01,Snow,Light Snow,360,2013-12-06 08:06:00
2:12 AM,23.0,19.9,88,30.27,1.0,North,12.7,-,0.01,Snow,Light Snow,350,2013-12-06 08:12:00
2:52 AM,23.0,19.0,85,30.27,1.2,North,10.4,-,0.02,Snow,Light Snow,360,2013-12-06 08:52:00
3:10 AM,23.0,19.0,85,30.24,2.5,North,8.1,-,0.01,Snow,Light Snow,10,2013-12-06 09:10:00
3:13 AM,23.0,19.9,88,30.25,3.0,North,11.5,-,0.01,Snow,Light Snow,360,2013-12-06 09:13:00
3:40 AM,23.0,19.0,85,30.23,2.5,North,8.1,-,0.02,Snow,Light Snow,10,2013-12-06 09:40:00
3:52 AM,23.0,19.0,85,30.25,3.0,North,11.5,-,0.02,Snow,Light Snow,10,2013-12-06 09:52:00
4:07 AM,23.0,19.0,85,30.25,2.5,North,12.7,-,0.00,Snow,Light Snow,350,2013-12-06 10:07:00
4:17 AM,23.0,19.0,85,30.26,1.8,North,10.4,-,0.01,Snow,Light Snow,350,2013-12-06 10:17:00
4:52 AM,23.0,19.0,85,30.30,0.8,North,9.2,-,0.03,Snow,Light Snow,360,2013-12-06 10:52:00
5:13 AM,21.9,19.0,89,30.27,0.5,North,8.1,-,0.02,Fog-Snow,Snow,360,2013-12-06 11:13:00
5:52 AM,21.9,19.0,89,30.31,0.8,North,9.2,-,0.07,Snow,Light Snow,360,2013-12-06 11:52:00
6:05 AM,21.9,19.0,89,30.30,0.8,North,8.1,-,0.00,Snow,Light Snow,360,2013-12-06 12:05:00
6:28 AM,21.9,19.0,89,30.29,0.5,North,4.6,-,0.03,Fog-Snow,Snow,10,2013-12-06 12:28:00
6:52 AM,21.9,18.0,85,30.31,0.5,North,11.5,19.6,0.06,Fog-Snow,Snow,10,2013-12-06 12:52:00
7:14 AM,21.9,18.0,85,30.30,0.8,North,11.5,-,0.01,Snow,Light Snow,360,2013-12-06 13:14:00
7:29 AM,21.9,18.0,85,30.31,0.8,North,10.4,-,0.02,Snow,Light Snow,10,2013-12-06 13:29:00
7:52 AM,21.9,19.0,89,30.34,0.5,North,8.1,-,0.03,Fog-Snow,Snow,360,2013-12-06 13:52:00
8:12 AM,21.9,18.0,85,30.32,0.5,North,12.7,-,0.01,Fog-Snow,Snow,360,2013-12-06 14:12:00
8:52 AM,21.9,18.0,85,30.36,0.5,North,9.2,-,0.04,Fog-Snow,Snow,360,2013-12-06 14:52:00
9:52 AM,21.9,18.0,85,30.35,0.5,North,11.5,18.4,0.04,Fog-Snow,Snow,360,2013-12-06 15:52:00
10:52 AM,21.9,18.0,85,30.36,0.5,North,11.5,-,0.02,Fog-Snow,Snow,350,2013-12-06 16:52:00
11:03 AM,21.9,18.0,85,30.34,0.8,North,13.8,-,0.00,Snow,Light Snow,350,2013-12-06 17:03:00
11:12 AM,21.9,18.0,85,30.35,1.0,North,17.3,-,0.00,Snow,Light Snow,360,2013-12-06 17:12:00
11:37 AM,21.9,18.0,85,30.31,0.8,North,13.8,-,0.01,Snow,Light Snow,360,2013-12-06 17:37:00
11:52 AM,21.9,18.0,85,30.34,0.5,North,10.4,-,0.01,Fog-Snow,Snow,360,2013-12-06 17:52:00
12:18 PM,21.9,18.0,85,30.31,1.0,North,17.3,24.2,0.01,Snow,Light Snow,350,2013-12-06 18:18:00
12:52 PM,21.9,17.1,82,30.32,1.2,North,17.3,-,0.01,Snow,Light Snow,360,2013-12-06 18:52:00
1:22 PM,21.9,17.1,82,30.31,2.0,North,18.4,-,0.00,Snow,Light Snow,360,2013-12-06 19:22:00
1:29 PM,21.9,17.1,82,30.31,2.0,North,16.1,-,0.00,Snow,Light Snow,360,2013-12-06 19:29:00
1:50 PM,21.2,17.6,86,30.31,1.2,North,16.1,-,0.00,Snow,Light Snow,360,2013-12-06 19:50:00
1:52 PM,21.9,17.1,82,30.32,1.2,North,17.3,-,0.00,Snow,Light Snow,350,2013-12-06 19:52:00
1:59 PM,21.9,17.1,82,30.31,1.0,North,18.4,-,0.00,Snow,Light Snow,350,2013-12-06 19:59:00
2:10 PM,21.9,17.1,82,30.31,0.8,North,15.0,-,0.00,Snow,Light Snow,350,2013-12-06 20:10:00
2:40 PM,21.9,17.1,82,30.33,1.0,North,15.0,-,0.01,Snow,Light Snow,360,2013-12-06 20:40:00
2:52 PM,21.9,18.0,85,30.36,1.2,NNW,12.7,-,0.01,Snow,Light Snow,340,2013-12-06 20:52:00
3:11 PM,21.9,17.1,82,30.34,1.0,North,16.1,-,0.00,Snow,Light Snow,350,2013-12-06 21:11:00
3:31 PM,21.9,18.0,85,30.34,0.5,North,11.5,-,0.00,Fog-Snow,Snow,360,2013-12-06 21:31:00
3:52 PM,21.9,18.0,85,30.38,1.2,North,13.8,-,0.01,Snow,Light Snow,350,2013-12-06 21:52:00
4:27 PM,21.0,17.1,85,30.36,2.5,North,12.7,-,0.00,Snow,Light Snow,350,2013-12-06 22:27:00
4:52 PM,21.0,16.0,81,30.40,3.0,NNW,13.8,-,0.00,Snow,Light Snow,340,2013-12-06 22:52:00
5:00 PM,21.0,16.0,81,30.37,4.0,North,13.8,-,0.00,Snow,Light Snow,350,2013-12-06 23:00:00
5:33 PM,21.0,16.0,81,30.40,10.0,North,12.7,-,0.00,,Overcast,360,2013-12-06 23:33:00
5:52 PM,21.0,16.0,81,30.44,10.0,North,11.5,-,0.00,,Overcast,350,2013-12-06 23:52:00
6:29 PM,21.0,16.0,81,30.43,10.0,North,11.5,-,N/A,,Overcast,350,2013-12-07 00:29:00
6:52 PM,21.0,15.1,78,30.47,10.0,North,12.7,-,N/A,,Overcast,350,2013-12-07 00:52:00
7:52 PM,19.9,12.9,74,30.49,10.0,North,11.5,-,N/A,,Overcast,350,2013-12-07 01:52:00
8:52 PM,19.9,12.9,74,30.52,10.0,NNW,10.4,-,N/A,,Overcast,340,2013-12-07 02:52:00
9:52 PM,19.9,12.0,71,30.54,10.0,NNW,11.5,-,N/A,,Overcast,340,2013-12-07 03:52:00
10:52 PM,19.0,10.9,71,30.57,10.0,NNW,12.7,-,N/A,,Overcast,340,2013-12-07 04:52:00
11:52 PM,19.0,10.0,68,30.58,10.0,North,13.8,-,N/A,,Overcast,350,2013-12-07 05:52:00